Location: Unspecified
(0.0000°N, 0.0000°E)
Time: 02:52:04
(UTC+00:00)

RS-8 - Visible Passes

Search period start: 07 October 2022 00:00
Search period end: 17 October 2022 00:00
Orbit: 1578 x 1660 km, 83.0° (Epoch: 06 October)

Date Brightness Start Highest point End Pass type
(mag) Time Alt. Az. Time Alt. Az. Time Alt. Az.
07 Oct 9.3 19:03:08 10° SE 19:05:26 16° ESE 19:05:26 16° ESE visible
07 Oct 9.2 20:59:46 10° SSW 21:04:14 31° SW 21:04:14 31° SW visible
08 Oct 9.3 18:48:25 10° SE 18:50:58 15° ESE 18:50:58 15° ESE visible
08 Oct 8.7 20:43:48 10° SSW 20:49:46 43° SW 20:49:46 43° SW visible
09 Oct 9.3 18:34:10 10° ESE 18:36:39 13° E 18:36:39 13° E visible
09 Oct 8.2 20:27:55 10° S 20:35:28 61° SW 20:35:28 61° SW visible
10 Oct 7.9 20:12:06 10° S 20:21:16 82° W 20:21:26 81° WNW visible
11 Oct 7.8 19:56:20 10° S 20:05:31 86° E 20:07:52 57° N visible
12 Oct 7.8 19:40:39 10° S 19:49:46 74° E 19:58:56 10° N visible
12 Oct 10.2 21:46:02 10° WSW 21:48:55 12° W 21:51:49 10° WNW visible
13 Oct 7.9 19:25:01 10° S 19:34:02 64° E 19:43:05 10° NNE visible
13 Oct 10.1 21:28:27 10° WSW 21:33:10 15° W 21:37:55 10° NW visible
14 Oct 8.0 19:09:27 10° SSE 19:18:18 54° E 19:27:10 10° NNE visible
14 Oct 9.9 21:11:33 10° SW 21:17:25 19° W 21:23:21 10° NW visible
15 Oct 8.2 18:53:57 10° SSE 19:02:34 46° E 19:11:10 10° NNE visible
15 Oct 9.7 20:54:56 10° SW 21:01:40 23° W 21:08:28 10° NW visible
16 Oct 8.4 18:38:32 10° SSE 18:46:49 38° E 18:55:05 10° NNE visible
16 Oct 9.5 20:38:32 10° SW 20:45:55 28° W 20:53:24 10° NNW visible
